FENGYUN 1C DEB, 46440

Orbit data source: Space-Track

FENGYUN 1C DEB, 46440 is space debris in SSO originally from a launch on Mon, 10 May 1999 UTC launched from the Taiyaun Space Center, China (TSC). Fengyun 1C debris stems from the Chinese weather satellite Fengyun-1C, which was intentionally destroyed by a Chinese anti-satellite missile in 2007. This event dramatically increased the amount of space debris, with thousands of trackable fragments posing hazards to satellites and human spaceflight. The Fengyun 1C debris cloud has become a focal point in discussions about space sustainability and the need for international regulations to prevent the creation of new debris.

Loading next visibility...
Identifier
46440, 1999-025EYV
Orbit
SSO
Country
Flag of CNCN / PRC
Related business
Manufacturer
Unknown
Mission
Spacecraft
Bus & Motor
Unknown
Mass
Unknown
Launch date (UTC)
1999-05-10 (27 years ago)
Launch vehicle
Unknown
Launch site
Taiyaun Space Center, China (TSC)
Object type
Payload
Rocket body
Debris
Shape & HBR
Unknown shape, 0.1 m
Radar Cross Section
Small (<0.1 m²)

Expand to show TLE details & history
Last TLE update: 1 week ago

TLE from 1 week ago
0 FENGYUN 1C DEB
1 46440U 99025EYV 26055.34152845  .00000658  00000-0  28159-3 0  9990
2 46440  98.5850  85.2609 0173828 282.3971 144.0869 14.20458008634148
Epoch: 2026-02-24T08:11Z
TLE epoch observation values (Epoch: 2026-02-24T08:11:48.058Z)
Latitude
66.20506°
Longitude
148.17538°
Altitude
937.359 km
Speed
7.337 km/s
True Right ascension
04h 21m 23s
True Declination
66° 04' 51"
Sunlit
Object was in daylight at epoch
Visualization orbit readout
Latitude
Unknown
Longitude
Unknown
Altitude
Unknown
Speed
Unknown
Apparent Right ascension
Unknown
Apparent Declination
Unknown
Sunlit
N/A
Visualization observer readout
Local Sidereal Time
08:45:36
Azimuth
Unknown
Elevation
Unknown
Doppler factor
Unknown
Orbital elements
Apogee altitude
946.095 km
Perigee altitude
695.815 km
Semi-major axis
7,199.092 km
Eccentricity
0.01738
Inclination
98.585°
RAAN
85.2609°
Arg. of periapsis
282.3971°
True anomaly
145.23498°
Mean anomaly
144.0869°
Eccentric anomaly
144.66295°
Mean motion
3.55326 °/min
Orbital period
101.32 mins
BSTAR
0.00028159
Loading maneuver chart data...
Computing Atmospheric mass density...

Documentation

Showing up to 5 results
|